Year,Month,Day,Hour,Minute,Value (Times are PST for temperature in C)
2017,09,06,00,00,18.70
2017,09,06,00,01,18.70
2017,09,06,00,02,18.70
2017,09,06,00,03,18.60
2017,09,06,00,04,18.60
2017,09,06,00,05,18.60
2017,09,06,00,06,18.60
2017,09,06,00,07,18.60
2017,09,06,00,08,18.60
2017,09,06,00,09,18.60
2017,09,06,00,10,18.60
2017,09,06,00,11,18.60
2017,09,06,00,12,18.60
2017,09,06,00,13,18.50
2017,09,06,00,14,18.50
2017,09,06,00,15,18.50
2017,09,06,00,16,18.40
2017,09,06,00,17,18.40
2017,09,06,00,18,18.40
2017,09,06,00,19,18.30
2017,09,06,00,20,18.30
2017,09,06,00,21,18.30
2017,09,06,00,22,18.20
2017,09,06,00,23,18.20
2017,09,06,00,24,18.20
2017,09,06,00,25,18.10
2017,09,06,00,26,18.10
2017,09,06,00,27,18.10
2017,09,06,00,28,18.10
2017,09,06,00,29,18.10
2017,09,06,00,30,18.10
2017,09,06,00,31,18.10
2017,09,06,00,32,18.10
2017,09,06,00,33,18.10
2017,09,06,00,34,18.00
2017,09,06,00,35,18.00
2017,09,06,00,36,18.00
2017,09,06,00,37,18.00
2017,09,06,00,38,18.00
2017,09,06,00,39,18.00
2017,09,06,00,40,18.10
2017,09,06,00,41,18.10
2017,09,06,00,42,18.10
2017,09,06,00,43,18.10
2017,09,06,00,44,18.10
2017,09,06,00,45,18.10
2017,09,06,00,46,18.10
2017,09,06,00,47,18.10
2017,09,06,00,48,18.10
2017,09,06,00,49,18.10
2017,09,06,00,50,18.10
2017,09,06,00,51,18.10
2017,09,06,00,52,18.10
2017,09,06,00,53,18.10
2017,09,06,00,54,18.00
2017,09,06,00,55,18.00
2017,09,06,00,56,17.90
2017,09,06,00,57,17.90
2017,09,06,00,58,17.90
2017,09,06,00,59,17.80
2017,09,06,01,00,17.80
2017,09,06,01,01,17.80
2017,09,06,01,02,17.80
2017,09,06,01,03,17.80
2017,09,06,01,04,17.80
2017,09,06,01,05,17.80
2017,09,06,01,06,17.80
2017,09,06,01,07,17.80
2017,09,06,01,08,17.80
2017,09,06,01,09,17.80
2017,09,06,01,10,17.80
2017,09,06,01,11,17.80
2017,09,06,01,12,17.70
2017,09,06,01,13,17.70
2017,09,06,01,14,17.70
2017,09,06,01,15,17.80
2017,09,06,01,16,17.80
2017,09,06,01,17,17.80
2017,09,06,01,18,17.80
2017,09,06,01,19,17.80
2017,09,06,01,20,17.80
2017,09,06,01,21,17.80
2017,09,06,01,22,17.80
2017,09,06,01,23,17.80
2017,09,06,01,24,17.80
2017,09,06,01,25,17.80
2017,09,06,01,26,17.80
2017,09,06,01,27,17.80
2017,09,06,01,28,17.80
2017,09,06,01,29,17.80
2017,09,06,01,30,17.80
2017,09,06,01,31,17.80
2017,09,06,01,32,17.80
2017,09,06,01,33,17.80
2017,09,06,01,34,17.80
2017,09,06,01,35,17.80
2017,09,06,01,36,17.80
2017,09,06,01,37,17.80
2017,09,06,01,38,17.80
2017,09,06,01,39,17.80
2017,09,06,01,40,17.80
2017,09,06,01,41,17.80
2017,09,06,01,42,17.80
2017,09,06,01,43,17.80
2017,09,06,01,44,17.80
2017,09,06,01,45,17.70
2017,09,06,01,46,17.70
2017,09,06,01,47,17.70
2017,09,06,01,48,17.70
2017,09,06,01,49,17.70
2017,09,06,01,50,17.60
2017,09,06,01,51,17.60
2017,09,06,01,52,17.60
2017,09,06,01,53,17.60
2017,09,06,01,54,17.60
2017,09,06,01,55,17.60
2017,09,06,01,56,17.60
2017,09,06,01,57,17.60
2017,09,06,01,58,17.60
2017,09,06,01,59,17.50
2017,09,06,02,00,17.50
2017,09,06,02,01,17.50
2017,09,06,02,02,17.50
2017,09,06,02,03,17.50
2017,09,06,02,04,17.40
2017,09,06,02,05,17.40
2017,09,06,02,06,17.40
2017,09,06,02,07,17.40
2017,09,06,02,08,17.40
2017,09,06,02,09,17.40
2017,09,06,02,10,17.40
2017,09,06,02,11,17.40
2017,09,06,02,12,17.40
2017,09,06,02,13,17.30
2017,09,06,02,14,17.30
2017,09,06,02,15,17.30
2017,09,06,02,16,17.30
2017,09,06,02,17,17.30
2017,09,06,02,18,17.30
2017,09,06,02,19,17.20
2017,09,06,02,20,17.20
2017,09,06,02,21,17.20
2017,09,06,02,22,17.20
2017,09,06,02,23,17.20
2017,09,06,02,24,17.10
2017,09,06,02,25,17.10
2017,09,06,02,26,17.10
2017,09,06,02,27,17.10
2017,09,06,02,28,17.10
2017,09,06,02,29,17.10
2017,09,06,02,30,17.10
2017,09,06,02,31,17.10
2017,09,06,02,32,17.00
2017,09,06,02,33,17.10
2017,09,06,02,34,17.10
2017,09,06,02,35,17.10
2017,09,06,02,36,17.10
2017,09,06,02,37,17.10
2017,09,06,02,38,17.10
2017,09,06,02,39,17.10
2017,09,06,02,40,17.10
2017,09,06,02,41,17.10
2017,09,06,02,42,17.10
2017,09,06,02,43,17.10
2017,09,06,02,44,17.10
2017,09,06,02,45,17.10
2017,09,06,02,46,17.10
2017,09,06,02,47,17.20
2017,09,06,02,48,17.20
2017,09,06,02,49,17.20
2017,09,06,02,50,17.20
2017,09,06,02,51,17.20
2017,09,06,02,52,17.20
2017,09,06,02,53,17.30
2017,09,06,02,54,17.30
2017,09,06,02,55,17.30
2017,09,06,02,56,17.30
2017,09,06,02,57,17.30
2017,09,06,02,58,17.30
2017,09,06,02,59,17.30
2017,09,06,03,00,17.30
2017,09,06,03,01,17.30
2017,09,06,03,02,17.30
2017,09,06,03,03,17.30
2017,09,06,03,04,17.30
2017,09,06,03,05,17.40
2017,09,06,03,06,17.40
2017,09,06,03,07,17.40
2017,09,06,03,08,17.40
2017,09,06,03,09,17.40
2017,09,06,03,10,17.40
2017,09,06,03,11,17.40
2017,09,06,03,12,17.40
2017,09,06,03,13,17.40
2017,09,06,03,14,17.40
2017,09,06,03,15,17.40
2017,09,06,03,16,17.30
2017,09,06,03,17,17.30
2017,09,06,03,18,17.30
2017,09,06,03,19,17.30
2017,09,06,03,20,17.30
2017,09,06,03,21,17.30
2017,09,06,03,22,17.30
2017,09,06,03,23,17.30
2017,09,06,03,24,17.30
2017,09,06,03,25,17.30
2017,09,06,03,26,17.30
2017,09,06,03,27,17.20
2017,09,06,03,28,17.20
2017,09,06,03,29,17.20
2017,09,06,03,30,17.20
2017,09,06,03,31,17.20
2017,09,06,03,32,17.20
2017,09,06,03,33,17.20
2017,09,06,03,34,17.20
2017,09,06,03,35,17.20
2017,09,06,03,36,17.20
2017,09,06,03,37,17.30
2017,09,06,03,38,17.30
2017,09,06,03,39,17.30
2017,09,06,03,40,17.30
2017,09,06,03,41,17.30
2017,09,06,03,42,17.30
2017,09,06,03,43,17.30
2017,09,06,03,44,17.30
2017,09,06,03,45,17.30
2017,09,06,03,46,17.30
2017,09,06,03,47,17.30
2017,09,06,03,48,17.30
2017,09,06,03,49,17.30
2017,09,06,03,50,17.30
2017,09,06,03,51,17.30
2017,09,06,03,52,17.40
2017,09,06,03,53,17.40
2017,09,06,03,54,17.40
2017,09,06,03,55,17.40
2017,09,06,03,56,17.30
2017,09,06,03,57,17.30
2017,09,06,03,58,17.30
2017,09,06,03,59,17.30
2017,09,06,04,00,17.30
2017,09,06,04,01,17.30
2017,09,06,04,02,17.30
2017,09,06,04,03,17.30
2017,09,06,04,04,17.30
2017,09,06,04,05,17.30
2017,09,06,04,06,17.30
2017,09,06,04,07,17.30
2017,09,06,04,08,17.30
2017,09,06,04,09,17.30
2017,09,06,04,10,17.30
2017,09,06,04,11,17.30
2017,09,06,04,12,17.30
2017,09,06,04,13,17.30
2017,09,06,04,14,17.30
2017,09,06,04,15,17.30
2017,09,06,04,16,17.30
2017,09,06,04,17,17.30
2017,09,06,04,18,17.30
2017,09,06,04,19,17.30
2017,09,06,04,20,17.30
2017,09,06,04,21,17.30
2017,09,06,04,22,17.30
2017,09,06,04,23,17.30
2017,09,06,04,24,17.30
2017,09,06,04,25,17.30
2017,09,06,04,26,17.30
2017,09,06,04,27,17.30
2017,09,06,04,28,17.30
2017,09,06,04,29,17.30
2017,09,06,04,30,17.30
2017,09,06,04,31,17.30
2017,09,06,04,32,17.30
2017,09,06,04,33,17.30
2017,09,06,04,34,17.30
2017,09,06,04,35,17.30
2017,09,06,04,36,17.30
2017,09,06,04,37,17.30
2017,09,06,04,38,17.20
2017,09,06,04,39,17.20
2017,09,06,04,40,17.20
2017,09,06,04,41,17.20
2017,09,06,04,42,17.20
2017,09,06,04,43,17.20
2017,09,06,04,44,17.20
2017,09,06,04,45,17.20
2017,09,06,04,46,17.20
2017,09,06,04,47,17.20
2017,09,06,04,48,17.20
2017,09,06,04,49,17.20
2017,09,06,04,50,17.20
2017,09,06,04,51,17.20
2017,09,06,04,52,17.20
2017,09,06,04,53,17.30
2017,09,06,04,54,17.30
2017,09,06,04,55,17.30
2017,09,06,04,56,17.30
2017,09,06,04,57,17.30
2017,09,06,04,58,17.30
2017,09,06,04,59,17.30
2017,09,06,05,00,17.30
2017,09,06,05,01,17.30
2017,09,06,05,02,17.30
2017,09,06,05,03,17.30
2017,09,06,05,04,17.30
2017,09,06,05,05,17.30
2017,09,06,05,06,17.30
2017,09,06,05,07,17.30
2017,09,06,05,08,17.30
2017,09,06,05,09,17.30
2017,09,06,05,10,17.30
2017,09,06,05,11,17.30
2017,09,06,05,12,17.30
2017,09,06,05,13,17.30
2017,09,06,05,14,17.30
2017,09,06,05,15,17.30
2017,09,06,05,16,17.30
2017,09,06,05,17,17.30
2017,09,06,05,18,17.20
2017,09,06,05,19,17.20
2017,09,06,05,20,17.20
2017,09,06,05,21,17.20
2017,09,06,05,22,17.20
2017,09,06,05,23,17.20
2017,09,06,05,24,17.10
2017,09,06,05,25,17.10
2017,09,06,05,26,17.10
2017,09,06,05,27,17.10
2017,09,06,05,28,17.10
2017,09,06,05,29,17.10
2017,09,06,05,30,17.10
2017,09,06,05,31,17.10
2017,09,06,05,32,17.10
2017,09,06,05,33,17.10
2017,09,06,05,34,17.10
2017,09,06,05,35,17.10
2017,09,06,05,36,17.10
2017,09,06,05,37,17.10
2017,09,06,05,38,17.10
2017,09,06,05,39,17.10
2017,09,06,05,40,17.10
2017,09,06,05,41,17.10
2017,09,06,05,42,17.10
2017,09,06,05,43,17.10
2017,09,06,05,44,17.10
2017,09,06,05,45,17.00
2017,09,06,05,46,17.00
2017,09,06,05,47,17.00
2017,09,06,05,48,17.00
2017,09,06,05,49,17.00
2017,09,06,05,50,17.00
2017,09,06,05,51,17.00
2017,09,06,05,52,17.00
2017,09,06,05,53,17.00
2017,09,06,05,54,17.00
2017,09,06,05,55,17.00
2017,09,06,05,56,17.00
2017,09,06,05,57,17.00
2017,09,06,05,58,16.90
2017,09,06,05,59,16.90
2017,09,06,06,00,16.90
2017,09,06,06,01,16.90
2017,09,06,06,02,16.90
2017,09,06,06,03,16.90
2017,09,06,06,04,16.90
2017,09,06,06,05,16.90
2017,09,06,06,06,16.80
2017,09,06,06,07,16.80
2017,09,06,06,08,16.80
2017,09,06,06,09,16.80
2017,09,06,06,10,16.80
2017,09,06,06,11,16.80
2017,09,06,06,12,16.70
2017,09,06,06,13,16.70
2017,09,06,06,14,16.70
2017,09,06,06,15,16.70
2017,09,06,06,16,16.70
2017,09,06,06,17,16.70
2017,09,06,06,18,16.70
2017,09,06,06,19,16.70
2017,09,06,06,20,16.70
2017,09,06,06,21,16.70
2017,09,06,06,22,16.70
2017,09,06,06,23,16.70
2017,09,06,06,24,16.70
2017,09,06,06,25,16.70
2017,09,06,06,26,16.60
2017,09,06,06,27,16.60
2017,09,06,06,28,16.60
2017,09,06,06,29,16.60
2017,09,06,06,30,16.60
2017,09,06,06,31,16.60
2017,09,06,06,32,16.50
2017,09,06,06,33,16.50
2017,09,06,06,34,16.50
2017,09,06,06,35,16.50
2017,09,06,06,36,16.50
2017,09,06,06,37,16.40
2017,09,06,06,38,16.40
2017,09,06,06,39,16.40
2017,09,06,06,40,16.40
2017,09,06,06,41,16.40
2017,09,06,06,42,16.40
2017,09,06,06,43,16.40
2017,09,06,06,44,16.40
2017,09,06,06,45,16.40
2017,09,06,06,46,16.40
2017,09,06,06,47,16.40
2017,09,06,06,48,16.40
2017,09,06,06,49,16.30
2017,09,06,06,50,16.30
2017,09,06,06,51,16.30
2017,09,06,06,52,16.30
2017,09,06,06,53,16.30
2017,09,06,06,54,16.30
2017,09,06,06,55,16.20
2017,09,06,06,56,16.20
2017,09,06,06,57,16.20
2017,09,06,06,58,16.20
2017,09,06,06,59,16.20
2017,09,06,07,00,16.20
2017,09,06,07,01,16.10
2017,09,06,07,02,16.10
2017,09,06,07,03,16.10
2017,09,06,07,04,16.10
2017,09,06,07,05,16.10
2017,09,06,07,06,16.10
2017,09,06,07,07,16.00
2017,09,06,07,08,16.00
2017,09,06,07,09,16.00
2017,09,06,07,10,16.00
2017,09,06,07,11,15.90
2017,09,06,07,12,15.90
2017,09,06,07,13,15.90
2017,09,06,07,14,15.90
2017,09,06,07,15,15.90
2017,09,06,07,16,15.80
2017,09,06,07,17,15.80
2017,09,06,07,18,15.80
2017,09,06,07,19,15.80
2017,09,06,07,20,15.80
2017,09,06,07,21,15.80
2017,09,06,07,22,15.80
2017,09,06,07,23,15.80
2017,09,06,07,24,15.80
2017,09,06,07,25,15.80
2017,09,06,07,26,15.80
2017,09,06,07,27,15.80
2017,09,06,07,28,15.80
2017,09,06,07,29,15.80
2017,09,06,07,30,15.80
2017,09,06,07,31,15.90
2017,09,06,07,32,15.90
2017,09,06,07,33,15.90
2017,09,06,07,34,15.90
2017,09,06,07,35,15.90
2017,09,06,07,36,15.90
2017,09,06,07,37,16.00
2017,09,06,07,38,16.00
2017,09,06,07,39,16.00
2017,09,06,07,40,16.00
2017,09,06,07,41,16.10
2017,09,06,07,42,16.10
2017,09,06,07,43,16.10
2017,09,06,07,44,16.10
2017,09,06,07,45,16.10
2017,09,06,07,46,16.20
2017,09,06,07,47,16.20
2017,09,06,07,48,16.20
2017,09,06,07,49,16.20
2017,09,06,07,50,16.20
2017,09,06,07,51,16.20
2017,09,06,07,52,16.20
2017,09,06,07,53,16.20
2017,09,06,07,54,16.20
2017,09,06,07,55,16.30
2017,09,06,07,56,16.30
2017,09,06,07,57,16.30
2017,09,06,07,58,16.30
2017,09,06,07,59,16.30
2017,09,06,08,00,16.30
2017,09,06,08,01,16.30
2017,09,06,08,02,16.40
2017,09,06,08,03,16.40
2017,09,06,08,04,16.40
2017,09,06,08,05,16.40
2017,09,06,08,06,16.50
2017,09,06,08,07,16.50
2017,09,06,08,08,16.50
2017,09,06,08,09,16.60
2017,09,06,08,10,16.60
2017,09,06,08,11,16.60
2017,09,06,08,12,16.60
2017,09,06,08,13,16.60
2017,09,06,08,14,16.70
2017,09,06,08,15,16.70
2017,09,06,08,16,16.70
2017,09,06,08,17,16.70
2017,09,06,08,18,16.80
2017,09,06,08,19,16.80
2017,09,06,08,20,16.80
2017,09,06,08,21,16.80
2017,09,06,08,22,16.90
2017,09,06,08,23,16.90
2017,09,06,08,24,16.90
2017,09,06,08,25,16.90
2017,09,06,08,26,16.90
2017,09,06,08,27,16.90
2017,09,06,08,28,17.00
2017,09,06,08,29,17.00
2017,09,06,08,30,17.00
2017,09,06,08,31,17.10
2017,09,06,08,32,17.10
2017,09,06,08,33,17.10
2017,09,06,08,34,17.10
2017,09,06,08,35,17.10
2017,09,06,08,36,17.20
2017,09,06,08,37,17.20
2017,09,06,08,38,17.20
2017,09,06,08,39,17.20
2017,09,06,08,40,17.20
2017,09,06,08,41,17.30
2017,09,06,08,42,17.30
2017,09,06,08,43,17.30
2017,09,06,08,44,17.30
2017,09,06,08,45,17.40
2017,09,06,08,46,17.40
2017,09,06,08,47,17.50
2017,09,06,08,48,17.50
2017,09,06,08,49,17.60
2017,09,06,08,50,17.60
2017,09,06,08,51,17.70
2017,09,06,08,52,17.70
2017,09,06,08,53,17.80
2017,09,06,08,54,17.90
2017,09,06,08,55,17.90
2017,09,06,08,56,18.00
2017,09,06,08,57,18.00
2017,09,06,08,58,18.10
2017,09,06,08,59,18.10
2017,09,06,09,00,18.20
2017,09,06,09,01,18.20
2017,09,06,09,02,18.30
2017,09,06,09,03,18.30
2017,09,06,09,04,18.40
2017,09,06,09,05,18.50
2017,09,06,09,06,18.60
2017,09,06,09,07,18.60
2017,09,06,09,08,18.70
2017,09,06,09,09,18.80
2017,09,06,09,10,18.90
2017,09,06,09,11,18.90
2017,09,06,09,12,19.00
2017,09,06,09,13,19.10
2017,09,06,09,14,19.20
2017,09,06,09,15,19.30
2017,09,06,09,16,19.30
2017,09,06,09,17,19.40
2017,09,06,09,18,19.50
2017,09,06,09,19,19.50
2017,09,06,09,20,19.60
2017,09,06,09,21,19.60
2017,09,06,09,22,19.70
2017,09,06,09,23,19.70
2017,09,06,09,24,19.70
2017,09,06,09,25,19.70
2017,09,06,09,26,19.80
2017,09,06,09,27,19.80
2017,09,06,09,28,19.90
2017,09,06,09,29,19.90
2017,09,06,09,30,20.00
2017,09,06,09,31,20.00
2017,09,06,09,32,20.10
2017,09,06,09,33,20.10
2017,09,06,09,34,20.20
2017,09,06,09,35,20.20
2017,09,06,09,36,20.30
2017,09,06,09,37,20.30
2017,09,06,09,38,20.30
2017,09,06,09,39,20.40
2017,09,06,09,40,20.40
2017,09,06,09,41,20.40
2017,09,06,09,42,20.50
2017,09,06,09,43,20.50
2017,09,06,09,44,20.50
2017,09,06,09,45,20.60
2017,09,06,09,46,20.60
2017,09,06,09,47,20.60
2017,09,06,09,48,20.60
2017,09,06,09,49,20.60
2017,09,06,09,50,20.60
2017,09,06,09,51,20.60
2017,09,06,09,52,20.60
2017,09,06,09,53,20.60
2017,09,06,09,54,20.60
2017,09,06,09,55,20.60
2017,09,06,09,56,20.60
2017,09,06,09,57,20.50
2017,09,06,09,58,20.50
2017,09,06,09,59,20.50
2017,09,06,10,00,20.40
2017,09,06,10,01,20.40
2017,09,06,10,02,20.40
2017,09,06,10,03,20.40
2017,09,06,10,04,20.40
2017,09,06,10,05,20.40
2017,09,06,10,06,20.40
2017,09,06,10,07,20.40
2017,09,06,10,08,20.40
2017,09,06,10,09,20.40
2017,09,06,10,10,20.30
2017,09,06,10,11,20.30
2017,09,06,10,12,20.40
2017,09,06,10,13,20.40
2017,09,06,10,14,20.40
2017,09,06,10,15,20.40
2017,09,06,10,16,20.40
2017,09,06,10,17,20.40
2017,09,06,10,18,20.40
2017,09,06,10,19,20.40
2017,09,06,10,20,20.40
2017,09,06,10,21,20.50
2017,09,06,10,22,20.50
2017,09,06,10,23,20.60
2017,09,06,10,24,20.60
2017,09,06,10,25,20.60
2017,09,06,10,26,20.70
2017,09,06,10,27,20.70
2017,09,06,10,28,20.70
2017,09,06,10,29,20.70
2017,09,06,10,30,20.70
2017,09,06,10,31,20.70
2017,09,06,10,32,20.70
2017,09,06,10,33,20.70
2017,09,06,10,34,20.70
2017,09,06,10,35,20.70
2017,09,06,10,36,20.80
2017,09,06,10,37,20.80
2017,09,06,10,38,20.80
2017,09,06,10,39,20.80
2017,09,06,10,40,20.90
2017,09,06,10,41,20.90
2017,09,06,10,42,21.00
2017,09,06,10,43,21.00
2017,09,06,10,44,21.10
2017,09,06,10,45,21.20
2017,09,06,10,46,21.20
2017,09,06,10,47,21.30
2017,09,06,10,48,21.40
2017,09,06,10,49,21.40
2017,09,06,10,50,21.50
2017,09,06,10,51,21.50
2017,09,06,10,52,21.60
2017,09,06,10,53,21.70
2017,09,06,10,54,21.80
2017,09,06,10,55,21.80
2017,09,06,10,56,21.90
2017,09,06,10,57,22.00
2017,09,06,10,58,22.10
2017,09,06,10,59,22.20
2017,09,06,11,00,22.20
2017,09,06,11,01,22.30
2017,09,06,11,02,22.30
2017,09,06,11,03,22.30
2017,09,06,11,04,22.40
2017,09,06,11,05,22.40
2017,09,06,11,06,22.50
2017,09,06,11,07,22.50
2017,09,06,11,08,22.60
2017,09,06,11,09,22.60
2017,09,06,11,10,22.70
2017,09,06,11,11,22.70
2017,09,06,11,12,22.80
2017,09,06,11,13,22.90
2017,09,06,11,14,23.00
2017,09,06,11,15,23.20
2017,09,06,11,16,23.30
2017,09,06,11,17,23.40
2017,09,06,11,18,23.50
2017,09,06,11,19,23.60
2017,09,06,11,20,23.70
2017,09,06,11,21,23.80
2017,09,06,11,22,23.90
2017,09,06,11,23,24.00
2017,09,06,11,24,24.10
2017,09,06,11,25,24.20
2017,09,06,11,26,24.20
2017,09,06,11,27,24.30
2017,09,06,11,28,24.30
2017,09,06,11,29,24.30
2017,09,06,11,30,24.40
2017,09,06,11,31,24.40
2017,09,06,11,32,24.40
2017,09,06,11,33,24.40
2017,09,06,11,34,24.50
2017,09,06,11,35,24.50
2017,09,06,11,36,24.60
2017,09,06,11,37,24.60
2017,09,06,11,38,24.60
2017,09,06,11,39,24.70
2017,09,06,11,40,24.70
2017,09,06,11,41,24.70
2017,09,06,11,42,24.70
2017,09,06,11,43,24.70
2017,09,06,11,44,24.70
2017,09,06,11,45,24.80
2017,09,06,11,46,24.80
2017,09,06,11,47,24.90
2017,09,06,11,48,24.90
2017,09,06,11,49,24.90
2017,09,06,11,50,25.00
2017,09,06,11,51,25.00
2017,09,06,11,52,25.10
2017,09,06,11,53,25.10
2017,09,06,11,54,25.10
2017,09,06,11,55,25.10
2017,09,06,11,56,25.10
2017,09,06,11,57,25.10
2017,09,06,11,58,25.10
2017,09,06,11,59,25.10
2017,09,06,12,00,25.10
2017,09,06,12,01,25.10
2017,09,06,12,02,25.20
2017,09,06,12,03,25.20
2017,09,06,12,04,25.20
2017,09,06,12,05,25.30
2017,09,06,12,06,25.30
2017,09,06,12,07,25.30
2017,09,06,12,08,25.20
2017,09,06,12,09,25.30
2017,09,06,12,10,25.30
2017,09,06,12,11,25.30
2017,09,06,12,12,25.30
2017,09,06,12,13,25.30
2017,09,06,12,14,25.30
2017,09,06,12,15,25.20
2017,09,06,12,16,25.20
2017,09,06,12,17,25.20
2017,09,06,12,18,25.20
2017,09,06,12,19,25.20
2017,09,06,12,20,25.20
2017,09,06,12,21,25.20
2017,09,06,12,22,25.10
2017,09,06,12,23,25.10
2017,09,06,12,24,25.10
2017,09,06,12,25,25.00
2017,09,06,12,26,25.00
2017,09,06,12,27,24.90
2017,09,06,12,28,24.90
2017,09,06,12,29,24.90
2017,09,06,12,30,24.90
2017,09,06,12,31,24.90
2017,09,06,12,32,24.90
2017,09,06,12,33,24.90
2017,09,06,12,34,25.00
2017,09,06,12,35,25.00
2017,09,06,12,36,25.10
2017,09,06,12,37,25.10
2017,09,06,12,38,25.30
2017,09,06,12,39,25.30
2017,09,06,12,40,25.40
2017,09,06,12,41,25.50
2017,09,06,12,42,25.50
2017,09,06,12,43,25.60
2017,09,06,12,44,25.60
2017,09,06,12,45,25.60
2017,09,06,12,46,25.70
2017,09,06,12,47,25.70
2017,09,06,12,48,25.70
2017,09,06,12,49,25.70
2017,09,06,12,50,25.80
2017,09,06,12,51,25.80
2017,09,06,12,52,25.80
2017,09,06,12,53,25.90
2017,09,06,12,54,25.90
2017,09,06,12,55,25.90
2017,09,06,12,56,25.90
2017,09,06,12,57,25.80
2017,09,06,12,58,25.80
2017,09,06,12,59,25.80
2017,09,06,13,00,25.80
2017,09,06,13,01,25.70
2017,09,06,13,02,25.70
2017,09,06,13,03,25.70
2017,09,06,13,04,25.70
2017,09,06,13,05,25.80
2017,09,06,13,06,25.70
2017,09,06,13,07,25.70
2017,09,06,13,08,25.70
2017,09,06,13,09,25.60
2017,09,06,13,10,25.60
2017,09,06,13,11,25.50
2017,09,06,13,12,25.50
2017,09,06,13,13,25.40
2017,09,06,13,14,25.40
2017,09,06,13,15,25.40
2017,09,06,13,16,25.40
2017,09,06,13,17,25.40
2017,09,06,13,18,25.40
2017,09,06,13,19,25.40
2017,09,06,13,20,25.30
2017,09,06,13,21,25.30
2017,09,06,13,22,25.30
2017,09,06,13,23,25.30
2017,09,06,13,24,25.20
2017,09,06,13,25,25.10
2017,09,06,13,26,25.10
2017,09,06,13,27,25.00
2017,09,06,13,28,25.00
2017,09,06,13,29,25.00
2017,09,06,13,30,25.00
2017,09,06,13,31,25.00
2017,09,06,13,32,25.00
2017,09,06,13,33,25.10
2017,09,06,13,34,25.10
2017,09,06,13,35,25.20
2017,09,06,13,36,25.20
2017,09,06,13,37,25.20
2017,09,06,13,38,25.30
2017,09,06,13,39,25.30
2017,09,06,13,40,25.30
2017,09,06,13,41,25.30
2017,09,06,13,42,25.30
2017,09,06,13,43,25.30
2017,09,06,13,44,25.30
2017,09,06,13,45,25.30
2017,09,06,13,46,25.30
2017,09,06,13,47,25.30
2017,09,06,13,48,25.30
2017,09,06,13,49,25.30
2017,09,06,13,50,25.30
2017,09,06,13,51,25.30
2017,09,06,13,52,25.30
2017,09,06,13,53,25.20
2017,09,06,13,54,25.20
2017,09,06,13,55,25.20
2017,09,06,13,56,25.20
2017,09,06,13,57,25.20
2017,09,06,13,58,25.20
2017,09,06,13,59,25.20
2017,09,06,14,00,25.20
2017,09,06,14,01,25.10
2017,09,06,14,02,25.10
2017,09,06,14,03,25.10
2017,09,06,14,04,25.10
2017,09,06,14,05,25.00
2017,09,06,14,06,25.00
2017,09,06,14,07,24.90
2017,09,06,14,08,24.90
2017,09,06,14,09,24.90
2017,09,06,14,10,24.90
2017,09,06,14,11,24.90
2017,09,06,14,12,24.90
2017,09,06,14,13,24.90
2017,09,06,14,14,24.90
2017,09,06,14,15,24.80
2017,09,06,14,16,24.80
2017,09,06,14,17,24.80
2017,09,06,14,18,24.80
2017,09,06,14,19,24.80
2017,09,06,14,20,24.80
2017,09,06,14,21,24.80
2017,09,06,14,22,24.80
2017,09,06,14,23,24.90
2017,09,06,14,24,24.90
2017,09,06,14,25,24.90
2017,09,06,14,26,25.00
2017,09,06,14,27,24.90
2017,09,06,14,28,25.00
2017,09,06,14,29,25.00
2017,09,06,14,30,25.00
2017,09,06,14,31,25.00
2017,09,06,14,32,25.10
2017,09,06,14,33,25.10
2017,09,06,14,34,25.10
2017,09,06,14,35,25.10
2017,09,06,14,36,25.10
2017,09,06,14,37,25.10
2017,09,06,14,38,25.10
2017,09,06,14,39,25.00
2017,09,06,14,40,25.00
2017,09,06,14,41,25.00
2017,09,06,14,42,25.00
2017,09,06,14,43,25.00
2017,09,06,14,44,25.10
2017,09,06,14,45,25.10
2017,09,06,14,46,25.10
2017,09,06,14,47,25.10
2017,09,06,14,48,25.10
2017,09,06,14,49,25.10
2017,09,06,14,50,25.10
2017,09,06,14,51,25.10
2017,09,06,14,52,25.10
2017,09,06,14,53,25.10
2017,09,06,14,54,25.10
2017,09,06,14,55,25.20
2017,09,06,14,56,25.20
2017,09,06,14,57,25.20
2017,09,06,14,58,25.30
2017,09,06,14,59,25.30
2017,09,06,15,00,25.30
2017,09,06,15,01,25.30
2017,09,06,15,02,25.40
2017,09,06,15,03,25.40
2017,09,06,15,04,25.50
2017,09,06,15,05,25.50
2017,09,06,15,06,25.60
2017,09,06,15,07,25.60
2017,09,06,15,08,25.70
2017,09,06,15,09,25.70
2017,09,06,15,10,25.70
2017,09,06,15,11,25.80
2017,09,06,15,12,25.80
2017,09,06,15,13,25.90
2017,09,06,15,14,25.90
2017,09,06,15,15,25.90
2017,09,06,15,16,25.90
2017,09,06,15,17,25.90
2017,09,06,15,18,25.90
2017,09,06,15,19,25.90
2017,09,06,15,20,25.90
2017,09,06,15,21,25.90
2017,09,06,15,22,25.80
2017,09,06,15,23,25.80
2017,09,06,15,24,25.80
2017,09,06,15,25,25.70
2017,09,06,15,26,25.70
2017,09,06,15,27,25.60
2017,09,06,15,28,25.60
2017,09,06,15,29,25.60
2017,09,06,15,30,25.60
2017,09,06,15,31,25.60
2017,09,06,15,32,25.60
2017,09,06,15,33,25.70
2017,09,06,15,34,25.70
2017,09,06,15,35,25.70
2017,09,06,15,36,25.70
2017,09,06,15,37,25.70
2017,09,06,15,38,25.80
2017,09,06,15,39,25.80
2017,09,06,15,40,25.80
2017,09,06,15,41,25.80
2017,09,06,15,42,25.90
2017,09,06,15,43,25.90
2017,09,06,15,44,25.90
2017,09,06,15,45,25.90
2017,09,06,15,46,25.90
2017,09,06,15,47,25.90
2017,09,06,15,48,26.00
2017,09,06,15,49,26.00
2017,09,06,15,50,26.00
2017,09,06,15,51,26.00
2017,09,06,15,52,26.00
2017,09,06,15,53,26.00
2017,09,06,15,54,26.10
2017,09,06,15,55,26.10
2017,09,06,15,56,26.10
2017,09,06,15,57,26.20
2017,09,06,15,58,26.20
2017,09,06,15,59,26.20
2017,09,06,16,00,26.20
2017,09,06,16,01,26.20
2017,09,06,16,02,26.20
2017,09,06,16,03,26.20
2017,09,06,16,04,26.20
2017,09,06,16,05,26.10
2017,09,06,16,06,26.10
2017,09,06,16,07,26.10
2017,09,06,16,08,26.00
2017,09,06,16,09,25.90
2017,09,06,16,10,25.90
2017,09,06,16,11,25.90
2017,09,06,16,12,25.90
2017,09,06,16,13,25.80
2017,09,06,16,14,25.80
2017,09,06,16,15,25.80
2017,09,06,16,16,25.80
2017,09,06,16,17,25.80
2017,09,06,16,18,25.70
2017,09,06,16,19,25.70
2017,09,06,16,20,25.70
2017,09,06,16,21,25.70
2017,09,06,16,22,25.60
2017,09,06,16,23,25.60
2017,09,06,16,24,25.60
2017,09,06,16,25,25.60
2017,09,06,16,26,25.60
2017,09,06,16,27,25.60
2017,09,06,16,28,25.50
2017,09,06,16,29,25.40
2017,09,06,16,30,25.40
2017,09,06,16,31,25.40
2017,09,06,16,32,25.30
2017,09,06,16,33,25.30
2017,09,06,16,34,25.30
2017,09,06,16,35,25.30
2017,09,06,16,36,25.30
2017,09,06,16,37,25.30
2017,09,06,16,38,25.30
2017,09,06,16,39,25.30
2017,09,06,16,40,25.30
2017,09,06,16,41,25.30
2017,09,06,16,42,25.30
2017,09,06,16,43,25.30
2017,09,06,16,44,25.30
2017,09,06,16,45,25.30
2017,09,06,16,46,25.30
2017,09,06,16,47,25.30
2017,09,06,16,48,25.30
2017,09,06,16,49,25.30
2017,09,06,16,50,25.30
2017,09,06,16,51,25.30
2017,09,06,16,52,25.30
2017,09,06,16,53,25.20
2017,09,06,16,54,25.20
2017,09,06,16,55,25.20
2017,09,06,16,56,25.20
2017,09,06,16,57,25.10
2017,09,06,16,58,25.10
2017,09,06,16,59,25.10
2017,09,06,17,00,25.10
2017,09,06,17,01,25.10
2017,09,06,17,02,25.10
2017,09,06,17,03,25.10
2017,09,06,17,04,25.10
2017,09,06,17,05,25.10
2017,09,06,17,06,25.10
2017,09,06,17,07,25.10
2017,09,06,17,08,25.10
2017,09,06,17,09,25.00
2017,09,06,17,10,25.00
2017,09,06,17,11,25.00
2017,09,06,17,12,25.00
2017,09,06,17,13,24.90
2017,09,06,17,14,24.90
2017,09,06,17,15,24.90
2017,09,06,17,16,24.90
2017,09,06,17,17,24.80
2017,09,06,17,18,24.80
2017,09,06,17,19,24.70